Aeroporto :
LOGIN :

Iscrizione | Disclaimer

   EN    FR    IT 

 










Sommario :    VFR   VFR Marginale   IFR   IFR Intensivo   IFR Molto Intensivo
Visibilità : 
Base nubi : 
>= 8 km
>= 3000ft
5 / 8 km
1000 / 3000 ft
1500m / 5 km
500 / 1000 ft
800 / 1500m
200 / 500 ft
< 800m
< 200 ft
Simboli :   Temporali  Nebbia  Neve Forte  Precipitazioni Forti  Vento > 20 kt
SIGMETs :   Varie  Temporali  Ghiacco  Turbolenza  Onda orograficha  Ceneri Vulcaniche






- Altitudine del aeroporto : 38 ft
- Codice IATA : ADX


EGQL - RAF Leuchars

ULTIMO METAR :
  • 011950Z 25015KT 9999 FEW048 08/05 Q1014 BLU

METARs OBSOLETI :
  • 011850Z 25014KT 9999 FEW041 SCT050 09/06 Q1015 BLU
  • 011750Z 26015KT 9999 BKN039 10/05 Q1015 BLU

TAF TAF EGQL
Valido dal 01 a 21 ore il 02 a 06 ore UTC


011945Z 0121/0206 25015KT 9999 SCT030
BECMG 0123/0202 26016G26KT
BECMG 0202/0205 26023G36KT



MetMap, La meteo Aeronautica in un colpo d'occhio ! - Copyright ORBIFLY Dicembre 2007 - Disclaimer

ORBIFLY MET'MAP TEAM :

Programmazione e sviluppo : Alexandra Zaïnal
Concezione : Baudouin d'Aumeries
Aiuto per la programmazione : Marc-Olivier Méhu
Supporto tecnico e logistico : Manuel Goepfert
Aiuto per la traduzione : Arnaldo La Scala

Contatto : metmap@orbifly.com




FONTI E CREDITI :

   NOAA